LVKCT SAFS-SADF

Flight info

Callsign LVKCT
Flight time 0h 42m
Altitude 39000
Route ISOPO UT672 MULTA UW24 SNT DCT TRINI
Aircraft CL60/M-SBDE1E2E3FGHIJ1J4J5J7M3RWXYZ/LB1V1D1

Departure

Time 2026-04-30 02:52
Airport Sunchales Aeroclub Airport (SAFS)

Arrival

Time 2026-04-30 03:35
Airport San Fernando Airport (SADF)
Time Latitude Longitude Altitude Speed Heading
2026-04-30 02:38 -30.95934 -61.52036 297 ft 0 kts 96°
2026-04-30 02:50 -30.95934 -61.52035 296 ft 1 kts 90°
2026-04-30 02:50 -30.95882 -61.52031 296 ft 8 kts 348°
2026-04-30 02:51 -30.95824 -61.52067 296 ft 15 kts 308°
2026-04-30 02:51 -30.95790 -61.52227 297 ft 24 kts 278°
2026-04-30 02:51 -30.95762 -61.52288 297 ft 4 kts 279°
2026-04-30 02:51 -30.95752 -61.52383 297 ft 13 kts 275°
2026-04-30 02:52 -30.95743 -61.52445 298 ft 3 kts 23°
2026-04-30 02:52 -30.95766 -61.52157 296 ft 90 kts 107°
2026-04-30 02:52 -30.95987 -61.51077 592 ft 165 kts 102°
2026-04-30 02:52 -30.96240 -61.49886 2054 ft 158 kts 102°
2026-04-30 02:53 -30.96554 -61.48581 2985 ft 188 kts 115°
2026-04-30 02:53 -30.97554 -61.47567 4235 ft 207 kts 160°
2026-04-30 02:53 -30.98958 -61.47413 5669 ft 216 kts 181°
2026-04-30 02:53 -31.00447 -61.47525 7065 ft 223 kts 183°
2026-04-30 02:54 -31.01967 -61.47654 8429 ft 228 kts 183°
2026-04-30 02:54 -31.03528 -61.47507 9735 ft 234 kts 167°
2026-04-30 02:54 -31.05224 -61.47016 10366 ft 271 kts 166°
2026-04-30 02:54 -31.07135 -61.46446 11290 ft 295 kts 167°
2026-04-30 02:55 -31.09166 -61.45847 12039 ft 322 kts 168°
2026-04-30 02:55 -31.11450 -61.45181 12544 ft 354 kts 169°
2026-04-30 02:55 -31.13882 -61.44469 13383 ft 370 kts 169°
2026-04-30 02:55 -31.16412 -61.43727 14405 ft 378 kts 170°
2026-04-30 02:56 -31.18999 -61.42971 15436 ft 384 kts 171°
2026-04-30 02:56 -31.21612 -61.42206 16467 ft 389 kts 171°
2026-04-30 02:56 -31.24225 -61.41443 17430 ft 393 kts 171°
2026-04-30 02:56 -31.26869 -61.40653 18469 ft 395 kts 170°
2026-04-30 02:57 -31.29496 -61.39844 19521 ft 394 kts 172°
2026-04-30 02:57 -31.32172 -61.38997 20465 ft 399 kts 169°
2026-04-30 02:57 -31.34766 -61.37694 21291 ft 412 kts 158°
2026-04-30 02:57 -31.37299 -61.36046 22081 ft 417 kts 157°
2026-04-30 02:58 -31.39803 -61.34415 22852 ft 421 kts 157°
2026-04-30 02:58 -31.42385 -61.32735 23557 ft 426 kts 157°
2026-04-30 02:58 -31.44973 -61.31050 24296 ft 430 kts 157°
2026-04-30 02:58 -31.47600 -61.29339 24991 ft 435 kts 157°
2026-04-30 02:59 -31.50287 -61.27588 25688 ft 439 kts 157°
2026-04-30 02:59 -31.52949 -61.25853 26337 ft 443 kts 157°
2026-04-30 02:59 -31.55670 -61.24078 26977 ft 447 kts 157°
2026-04-30 02:59 -31.58394 -61.22300 27568 ft 452 kts 157°
2026-04-30 03:00 -31.61125 -61.20516 28128 ft 456 kts 157°
2026-04-30 03:00 -31.63901 -61.18703 28651 ft 460 kts 157°
2026-04-30 03:00 -31.66696 -61.16875 29152 ft 463 kts 158°
2026-04-30 03:00 -31.69551 -61.15007 29675 ft 466 kts 157°
2026-04-30 03:01 -31.72371 -61.13160 30058 ft 470 kts 158°
2026-04-30 03:01 -31.75216 -61.11297 30416 ft 474 kts 157°
2026-04-30 03:01 -31.78093 -61.09410 30812 ft 476 kts 157°
2026-04-30 03:01 -31.81001 -61.07500 31292 ft 476 kts 158°
2026-04-30 03:02 -31.83906 -61.05592 31745 ft 476 kts 158°
2026-04-30 03:02 -31.86708 -61.03750 32207 ft 476 kts 158°
2026-04-30 03:02 -31.89578 -61.01861 32702 ft 475 kts 158°
2026-04-30 03:02 -31.92480 -60.99950 33179 ft 474 kts 158°
2026-04-30 03:03 -31.95345 -60.98063 33639 ft 473 kts 158°
2026-04-30 03:03 -32.01066 -60.94291 34621 ft 471 kts 158°
2026-04-30 03:03 -32.03928 -60.92401 35081 ft 470 kts 158°
2026-04-30 03:04 -32.06791 -60.90510 35569 ft 469 kts 158°
2026-04-30 03:04 -32.09536 -60.88697 36037 ft 467 kts 159°
2026-04-30 03:04 -32.12349 -60.86845 36471 ft 466 kts 158°
2026-04-30 03:04 -32.15163 -60.84981 36844 ft 466 kts 159°
2026-04-30 03:05 -32.17995 -60.83105 37232 ft 466 kts 159°
2026-04-30 03:05 -32.20837 -60.81222 37542 ft 467 kts 159°
2026-04-30 03:05 -32.23651 -60.79355 37927 ft 466 kts 159°
2026-04-30 03:05 -32.26473 -60.77481 38281 ft 466 kts 159°
2026-04-30 03:06 -32.29331 -60.75584 38570 ft 466 kts 159°
2026-04-30 03:06 -32.32165 -60.73701 38836 ft 467 kts 159°
2026-04-30 03:06 -32.34990 -60.71822 39037 ft 469 kts 159°
2026-04-30 03:06 -32.37815 -60.69944 39031 ft 472 kts 159°
2026-04-30 03:07 -32.43600 -60.66093 39030 ft 479 kts 158°
2026-04-30 03:07 -32.49403 -60.62222 39030 ft 481 kts 159°
2026-04-30 03:08 -32.55239 -60.58320 39030 ft 481 kts 159°
2026-04-30 03:08 -32.61089 -60.54404 39029 ft 481 kts 159°
2026-04-30 03:09 -32.66881 -60.50521 39030 ft 481 kts 159°
2026-04-30 03:09 -32.72723 -60.46598 39029 ft 481 kts 159°
2026-04-30 03:10 -32.78530 -60.42668 39032 ft 482 kts 157°
2026-04-30 03:10 -32.84021 -60.37920 39030 ft 489 kts 151°
2026-04-30 03:11 -32.89460 -60.33022 39034 ft 489 kts 150°
2026-04-30 03:11 -32.94892 -60.28125 39033 ft 489 kts 151°
2026-04-30 03:12 -33.00285 -60.23257 39028 ft 489 kts 151°
2026-04-30 03:12 -33.05723 -60.18341 39034 ft 490 kts 151°
2026-04-30 03:13 -33.11172 -60.13411 38587 ft 497 kts 151°
2026-04-30 03:13 -33.13770 -60.11057 38027 ft 495 kts 151°
2026-04-30 03:13 -33.16584 -60.08500 37414 ft 489 kts 151°
2026-04-30 03:14 -33.19304 -60.06026 36780 ft 483 kts 151°
2026-04-30 03:14 -33.21957 -60.03613 36153 ft 479 kts 152°
2026-04-30 03:14 -33.24604 -60.01206 35518 ft 477 kts 152°
2026-04-30 03:14 -33.27244 -59.98804 34891 ft 476 kts 152°
2026-04-30 03:15 -33.29876 -59.96408 34254 ft 475 kts 152°
2026-04-30 03:15 -33.32497 -59.94021 33630 ft 475 kts 152°
2026-04-30 03:15 -33.35132 -59.91618 32995 ft 473 kts 152°
2026-04-30 03:15 -33.37721 -59.89253 32381 ft 470 kts 152°
2026-04-30 03:16 -33.40342 -59.86863 31748 ft 476 kts 152°
2026-04-30 03:16 -33.43003 -59.84438 31107 ft 481 kts 152°
2026-04-30 03:16 -33.45650 -59.82016 30473 ft 480 kts 152°
2026-04-30 03:16 -33.48312 -59.79577 29835 ft 477 kts 152°
2026-04-30 03:17 -33.50895 -59.77206 29220 ft 472 kts 152°
2026-04-30 03:17 -33.53511 -59.74804 28583 ft 467 kts 152°
2026-04-30 03:17 -33.56069 -59.72454 27976 ft 462 kts 152°
2026-04-30 03:17 -33.58597 -59.70131 27367 ft 458 kts 152°
2026-04-30 03:18 -33.61155 -59.67779 26745 ft 455 kts 151°
2026-04-30 03:18 -33.63638 -59.65495 26154 ft 452 kts 151°
2026-04-30 03:18 -33.66145 -59.63187 25547 ft 449 kts 151°
2026-04-30 03:18 -33.68620 -59.60907 24953 ft 445 kts 151°
2026-04-30 03:19 -33.71059 -59.58658 24367 ft 442 kts 151°
2026-04-30 03:19 -33.73476 -59.56428 23790 ft 439 kts 151°
2026-04-30 03:19 -33.75893 -59.54197 23204 ft 436 kts 151°
2026-04-30 03:19 -33.78278 -59.51994 22637 ft 433 kts 151°
2026-04-30 03:20 -33.80658 -59.49794 22058 ft 430 kts 150°
2026-04-30 03:20 -33.83046 -59.47584 21484 ft 427 kts 150°
2026-04-30 03:20 -33.85384 -59.45421 20926 ft 424 kts 150°
2026-04-30 03:20 -33.87717 -59.43260 20359 ft 421 kts 150°
2026-04-30 03:21 -33.90013 -59.41130 19805 ft 417 kts 150°
2026-04-30 03:21 -33.92319 -59.38992 19250 ft 415 kts 150°
2026-04-30 03:21 -33.94590 -59.36884 18704 ft 412 kts 150°
2026-04-30 03:21 -33.96860 -59.34775 18156 ft 410 kts 149°
2026-04-30 03:22 -33.99140 -59.32657 17607 ft 408 kts 149°
2026-04-30 03:22 -34.01364 -59.30588 17071 ft 404 kts 148°
2026-04-30 03:22 -34.03596 -59.28510 16530 ft 401 kts 148°
2026-04-30 03:22 -34.05807 -59.26450 15988 ft 397 kts 148°
2026-04-30 03:23 -34.07978 -59.24426 15462 ft 393 kts 148°
2026-04-30 03:23 -34.10125 -59.22423 14940 ft 387 kts 148°
2026-04-30 03:23 -34.12223 -59.20461 14434 ft 377 kts 147°
2026-04-30 03:23 -34.14270 -59.18546 13943 ft 366 kts 148°
2026-04-30 03:24 -34.16269 -59.16676 13461 ft 357 kts 147°
2026-04-30 03:24 -34.18204 -59.14864 12993 ft 348 kts 147°
2026-04-30 03:24 -34.20113 -59.13076 12535 ft 340 kts 147°
2026-04-30 03:24 -34.21958 -59.11349 12090 ft 333 kts 147°
2026-04-30 03:25 -34.23764 -59.09658 11653 ft 327 kts 147°
2026-04-30 03:25 -34.25563 -59.07971 11220 ft 321 kts 147°
2026-04-30 03:25 -34.27309 -59.06335 10798 ft 316 kts 146°
2026-04-30 03:25 -34.29032 -59.04719 10382 ft 311 kts 146°
2026-04-30 03:26 -34.30732 -59.03124 9972 ft 306 kts 146°
2026-04-30 03:26 -34.32411 -59.01548 9567 ft 301 kts 146°
2026-04-30 03:26 -34.34062 -58.99997 9170 ft 297 kts 146°
2026-04-30 03:26 -34.35687 -58.98470 8776 ft 292 kts 146°
2026-04-30 03:27 -34.37274 -58.96978 8398 ft 290 kts 146°
2026-04-30 03:27 -34.38882 -58.95467 8006 ft 290 kts 146°
2026-04-30 03:27 -34.40458 -58.93984 7620 ft 289 kts 145°
2026-04-30 03:27 -34.42047 -58.92488 7240 ft 287 kts 145°
2026-04-30 03:28 -34.43620 -58.91006 6868 ft 285 kts 145°
2026-04-30 03:28 -34.45181 -58.89536 6463 ft 284 kts 145°
2026-04-30 03:28 -34.46737 -58.88069 6090 ft 279 kts 145°
2026-04-30 03:28 -34.48249 -58.86641 5732 ft 273 kts 144°
2026-04-30 03:29 -34.49715 -58.85256 5370 ft 268 kts 144°
2026-04-30 03:29 -34.51170 -58.83881 4999 ft 260 kts 144°
2026-04-30 03:29 -34.52570 -58.82556 4675 ft 246 kts 144°
2026-04-30 03:29 -34.53888 -58.81309 4371 ft 234 kts 144°
2026-04-30 03:30 -34.55117 -58.80099 4073 ft 224 kts 136°
2026-04-30 03:30 -34.55951 -58.78534 3736 ft 221 kts 110°
2026-04-30 03:30 -34.56367 -58.76740 3145 ft 216 kts 111°
2026-04-30 03:30 -34.56766 -58.75098 3055 ft 195 kts 102°
2026-04-30 03:31 -34.56785 -58.73492 2933 ft 191 kts 78°
2026-04-30 03:31 -34.56263 -58.71984 2806 ft 195 kts 62°
2026-04-30 03:31 -34.55487 -58.70661 2616 ft 191 kts 49°
2026-04-30 03:31 -34.54546 -58.69534 2368 ft 190 kts 43°
2026-04-30 03:32 -34.53572 -58.68494 2110 ft 178 kts 42°
2026-04-30 03:32 -34.52688 -58.67533 1889 ft 166 kts 44°
2026-04-30 03:32 -34.51864 -58.66596 1675 ft 158 kts 45°
2026-04-30 03:32 -34.51104 -58.65707 1505 ft 144 kts 46°
2026-04-30 03:33 -34.50421 -58.64901 1317 ft 131 kts 46°
2026-04-30 03:33 -34.49775 -58.64137 1108 ft 126 kts 46°
2026-04-30 03:33 -34.49158 -58.63410 938 ft 123 kts 45°
2026-04-30 03:33 -34.48547 -58.62693 771 ft 122 kts 45°
2026-04-30 03:34 -34.47939 -58.61983 613 ft 121 kts 45°
2026-04-30 03:34 -34.47329 -58.61272 437 ft 121 kts 46°
2026-04-30 03:34 -34.46729 -58.60564 278 ft 119 kts 45°
2026-04-30 03:34 -34.46133 -58.59868 121 ft 119 kts 45°
2026-04-30 03:35 -34.45544 -58.59190 14 ft 107 kts 44°
2026-04-30 03:35 -34.45092 -58.58663 13 ft 73 kts 45°
2026-04-30 03:35 -34.44895 -58.58435 12 ft 27 kts 43°
2026-04-30 03:35 -34.44853 -58.58322 12 ft 16 kts 130°
2026-04-30 03:36 -34.44914 -58.58265 12 ft 11 kts 148°
2026-04-30 03:36 -34.44996 -58.58207 12 ft 15 kts 150°
2026-04-30 03:36 -34.45099 -58.58131 12 ft 19 kts 148°
2026-04-30 03:36 -34.45225 -58.58037 12 ft 22 kts 147°
2026-04-30 03:37 -34.45309 -58.57981 12 ft 7 kts 155°
2026-04-30 03:37 -34.45352 -58.58026 12 ft 11 kts 242°
2026-04-30 03:37 -34.45396 -58.58130 12 ft 16 kts 242°
2026-04-30 03:37 -34.45456 -58.58269 12 ft 20 kts 242°
2026-04-30 03:38 -34.45489 -58.58345 12 ft 8 kts 242°
2026-04-30 03:38 -34.45510 -58.58373 12 ft 4 kts 158°
2026-04-30 03:38 -34.45538 -58.58360 12 ft 0 kts 190°